This demonstration page uses our WeatherBlox Daily Observations layout. Learn more.

Left ArrowRight Arrow

30.00354, -91.81873

Hourly Observations for September 13, 2022

Temp ( °F °C ) Dew Point ( °F °C ) Humidity (%) Winds ( mph kmh ) Pressure ( in mb ) Visibility ( mi km ) Precip ( " mm )
12:53 am 00:53 Clear 69 20.6 63 17.2 81 81 N 5 7 29.96 1014 10 16 0.00 0.00
1:53 am 01:53 Clear 68 20 63 17.2 84 84 NNE 5 7 29.96 1014 10 16 0.00 0.00
2:53 am 02:53 Clear 70 21.1 64 17.8 81 81 NE 7 11 29.95 1014 10 16 0.00 0.00
3:53 am 03:53 Clear 67 19.4 62 16.7 84 84 N 6 9 29.94 1014 10 16 0.00 0.00
4:53 am 04:53 Clear 68 20 62 16.7 81 81 NNE 8 13 29.93 1014 10 16 0.00 0.00
5:53 am 05:53 Clear 69 20.6 61 16.1 75 75 NE 9 15 29.95 1014 10 16 0.00 0.00
6:53 am 06:53 Sunny 67 19.4 61 16.1 81 81 NE 8 13 29.96 1015 10 16 0.00 0.00
7:53 am 07:53 Sunny 69 20.6 62 16.7 78 78 NE 8 13 29.97 1015 10 16 0.00 0.00
8:53 am 08:53 Sunny 73 22.8 62 16.7 68 68 ENE 8 13 29.98 1015 10 16 0.00 0.00
9:53 am 09:53 Sunny 78 25.6 63 17.2 60 60 ENE 7 11 29.98 1015 10 16 0.00 0.00
10:53 am 10:53 Sunny 82 27.8 61 16.1 49 49 NE 10 17 29.99 1016 10 16 0.00 0.00
11:53 am 11:53 Sunny 82 27.8 59 15 46 46 ENE 6 9 29.98 1015 10 16 0.00 0.00
12:53 pm 12:53 Sunny 84 28.9 59 15 43 43 NE 9 15 29.97 1015 10 16 0.00 0.00
1:53 pm 13:53 Sunny 84 28.9 58 14.4 41 41 NNE 9 15 29.96 1015 10 16 0.00 0.00
2:53 pm 14:53 Sunny 83 28.3 59 15 44 44 NNE 13 20 29.94 1014 10 16 0.00 0.00
3:53 pm 15:53 Sunny 85 29.4 55 12.8 36 36 NE 9 15 29.93 1014 10 16 0.00 0.00
4:53 pm 16:53 Sunny 85 29.4 51 10.6 31 31 ENE 10 17 29.92 1013 10 16 0.00 0.00
5:53 pm 17:53 Sunny 83 28.3 57 13.9 41 41 NE 10 17 29.92 1013 10 16 0.00 0.00
6:53 pm 18:53 Sunny 79 26.1 59 15 50 50 NE 6 9 29.93 1014 10 16 0.00 0.00
7:53 pm 19:53 Clear 75 23.9 61 16.1 62 62 NNE 5 7 29.93 1014 10 16 0.00 0.00
8:53 pm 20:53 Clear 70 21.1 61 16.1 73 73 NNE 5 7 29.95 1014 10 16 0.00 0.00
9:53 pm 21:53 Clear 71 21.7 62 16.7 73 73 NNE 3 6 29.97 1015 10 16 0.00 0.00
10:53 pm 22:53 Clear 69 20.6 61 16.1 75 75 ENE 6 9 29.98 1015 10 16 0.00 0.00
11:53 pm 23:53 Mostly Clear 69 20.6 62 16.7 78 78 ENE 3 6 29.97 1015 10 16 0.00 0.00

Powered by AerisWeather